STARLINK-33803, 63517

Orbit data source: Space-Track

STARLINK-33803, 63517 is a payload satellite owned by SpaceX/Seattle (US) in LEO that was launched on Mon, 07 Apr 2025 UTC via an FALCON 9 launch vehicle from the Air Force Western Test Range (AFWTR). Payload-class satellites include a variety of spacecraft equipped with specific instruments for various scientific and technological missions. These include communications satellites like Starlink; space stations such as the ISS; scientific satellites like the Hubble; Earth observation satellites from companies like Planet Labs, Umbra, and HawkEye 360; GPS; miniature CubeSats for education and research; and military/defense satellites.

Loading next visibility...
Identifier
63517, 2025-071AA
Orbit
LEO
Country
Flag of USUS
Related business
Manufacturer
SpaceX/Seattle
Mission
Operational Commercial Communications
Bus & Motor
STARLINK V2MO, Unknown motor
Mass
575 kg wet, ~530 kg dry
Launch date (UTC)
2025-04-07 (8 months ago)
Launch vehicle
FALCON 9
Launch site
Air Force Western Test Range (AFWTR)
Object type
Payload
Rocket body
Debris
Shape & HBR
Box + 2 Pan, 17.7 m
Radar Cross Section
36.964 m², Large (>1 m²)

Expand to show TLE details & history
Last TLE update: 17 hours ago

TLE from 17 hours ago
0 STARLINK-33803
1 63517U 25071AA  25346.77114143  .00050085  00000-0  16913-2 0  9995
2 63517  53.1573 183.5084 0001001 113.5960 246.5146 15.30210069 39461
Epoch: 2025-12-12T18:30Z
TLE epoch observation values (Epoch: 2025-12-12T18:30:26.619Z)
Latitude
-0.00002°
Longitude
-175.81051°
Altitude
476.358 km
Speed
7.629 km/s
True Right ascension
12h 14m 02s
True Declination
0° 00' 00"
Sunlit
Object was in daylight at epoch
Visualization orbit readout
Latitude
Unknown
Longitude
Unknown
Altitude
Unknown
Speed
Unknown
Apparent Right ascension
Unknown
Apparent Declination
Unknown
Sunlit
N/A
Visualization observer readout
Local Sidereal Time
10:10:10
Azimuth
Unknown
Elevation
Unknown
Doppler factor
Unknown
Orbital elements
Apogee altitude
476.128 km
Perigee altitude
474.756 km
Semi-major axis
6,853.579 km
Eccentricity
0.0001
Inclination
53.1573°
RAAN
183.5084°
Arg. of periapsis
113.596°
True anomaly
246.50408°
Mean anomaly
246.5146°
Eccentric anomaly
246.50934°
Mean motion
3.82531 °/min
Orbital period
94.11 mins
BSTAR
0.0016913
Loading maneuver chart data...
Computing Atmospheric mass density...
Loading historical data...
Loading historical data...
Loading historical data...
Loading historical data...
Loading historical data...
Loading historical data...
Loading historical data...

Documentation

Showing up to 5 results
|